Location: Cosy Dell
(34.2789°N, 117.4537°W)
Time: 20:49:28
(UTC+00:00)

CZ-4C R/B - Pass Details

Date: 28 October 2020
Orbit: 623 x 1378 km, 63.4° (Epoch: 03 December)

Event Time Altitude Azimuth Distance (km) Brightness Sun altitude
Rises 04:11:15 0° 338° (NNW) 3,890 6.0 -39.8°
Reaches altitude 10° 04:14:08 10° 348° (NNW) 3,042 5.3 -40.4°
Enters shadow 04:15:31 16° 355° (N) 2,682 4.9 -40.6°
